FW5449 Weather Reports


Display with metric or nautical units.
time (UTC)temp
F
wind
direction
speed
MPH
gust
MPH
rain 1hr
in
rain 24hr
in
rain mn
in
humidity
%
barometer
mb
20260509104730 46 125 0.0 0.0 0.00 0.00 0.00 92 1020.6
20260509104221 46 125 0.0 0.0 0.00 0.00 0.00 92 1020.6
20260509103711 46 125 0.0 0.0 0.00 0.00 0.00 92 1020.6
20260509103429 47 125 0.0 0.0 0.00 0.00 0.00 91 1020.7
20260509102652 47 125 0.0 0.0 0.00 0.00 0.00 91 1020.7
20260509102138 47 125 0.0 0.0 0.00 0.00 0.00 91 1020.6
20260509101630 47 125 0.0 0.0 0.00 0.00 0.00 93 1020.7
20260509101326 47 125 0.0 0.0 0.00 0.00 0.00 92 1020.8
20260509100553 47 125 0.0 0.0 0.00 0.00 0.00 93 1020.7
20260509100016 47 125 0.0 1.0 0.00 0.00 0.00 93 1020.8
20260509095505 47 125 1.0 2.0 0.00 0.00 0.00 93 1020.8
20260509095216 47 125 1.0 2.0 0.00 0.00 0.00 93 1021.0
20260509094657 47 125 1.0 2.0 0.00 0.00 0.00 93 1020.8
20260509093940 48 125 1.0 2.0 0.00 0.00 0.00 93 1020.8
20260509093644 48 125 0.0 2.0 0.00 0.00 0.00 92 1020.7
20260509092921 48 125 0.0 0.0 0.00 0.00 0.00 92 1020.8
20260509092417 48 125 0.0 0.0 0.00 0.00 0.00 92 1020.7
20260509091909 48 125 0.0 0.0 0.00 0.00 0.00 91 1020.9
20260509091412 48 125 0.0 1.0 0.00 0.00 0.00 91 1021.0
20260509090839 48 125 0.0 1.0 0.00 0.00 0.00 91 1021.0
20260509090337 49 125 0.0 1.0 0.00 0.00 0.00 90 1021.1
20260509085836 49 125 0.0 1.0 0.00 0.00 0.00 90 1021.1
20260509085336 49 125 0.0 1.0 0.00 0.00 0.00 89 1021.1
20260509085055 49 125 0.0 1.0 0.00 0.00 0.00 89 1021.2
20260509084333 49 125 0.0 1.0 0.00 0.00 0.00 90 1021.1
20260509083820 49 125 0.0 1.0 0.00 0.00 0.00 90 1021.2
20260509083316 49 125 0.0 0.0 0.00 0.00 0.00 90 1021.2
20260509083035 49 125 0.0 0.0 0.00 0.00 0.00 90 1021.2
20260509082531 50 125 0.0 0.0 0.00 0.00 0.00 90 1021.2
20260509081740 50 125 0.0 1.0 0.00 0.00 0.00 89 1021.2
20260509081504 50 125 0.0 1.0 0.00 0.00 0.00 90 1021.2
20260509080734 50 125 0.0 1.0 0.00 0.00 0.00 89 1021.3
20260509080234 50 125 1.0 2.0 0.00 0.00 0.00 89 1021.3
20260509075731 51 125 1.0 2.0 0.00 0.00 0.00 88 1021.2
20260509075229 51 125 1.0 2.0 0.00 0.00 0.00 88 1021.2
20260509074720 51 125 0.0 1.0 0.00 0.00 0.00 89 1021.1
20260509074440 51 125 0.0 0.0 0.00 0.00 0.00 88 1021.2
20260509073725 51 125 0.0 1.0 0.00 0.00 0.00 88 1021.2
20260509073217 51 125 1.0 2.0 0.00 0.00 0.00 88 1021.2
20260509072654 51 125 1.0 2.0 0.00 0.00 0.00 88 1021.2
20260509072148 51 125 1.0 2.0 0.00 0.00 0.00 88 1021.3
20260509071645 52 125 1.0 2.0 0.00 0.00 0.00 88 1021.5
20260509071148 52 125 1.0 2.0 0.00 0.00 0.00 87 1021.4
20260509070645 52 125 1.0 2.0 0.00 0.00 0.00 87 1021.4
20260509070146 53 125 1.0 2.0 0.00 0.00 0.00 86 1021.4
20260509065639 53 125 1.0 3.0 0.00 0.00 0.00 87 1021.5
20260509065138 52 125 1.0 3.0 0.00 0.00 0.00 87 1021.4
20260509064627 52 45 1.0 3.0 0.00 0.00 0.00 86 1021.4
20260509064112 52 332 1.0 2.0 0.00 0.00 0.00 87 1021.4
20260509063613 53 329 0.0 2.0 0.00 0.00 0.00 87 1021.4
20260509063059 53 329 0.0 2.0 0.00 0.00 0.00 87 1021.4
20260509062559 53 329 0.0 0.0 0.00 0.00 0.00 86 1021.4
20260509062024 53 329 0.0 0.0 0.00 0.00 0.00 85 1021.4
20260509061451 53 329 0.0 0.0 0.00 0.00 0.00 86 1021.4
20260509060937 53 329 0.0 0.0 0.00 0.00 0.00 85 1021.4
20260509060425 53 329 0.0 0.0 0.00 0.00 0.00 85 1021.4
20260509055846 54 329 0.0 0.0 0.00 0.00 0.00 85 1021.3
20260509055342 54 329 0.0 0.0 0.00 0.00 0.00 85 1021.3
20260509054825 54 329 0.0 0.0 0.00 0.00 0.00 85 1021.3
20260509054255 55 329 0.0 0.0 0.00 0.00 0.00 85 1021.4
20260509053740 55 329 0.0 0.0 0.00 0.00 0.00 84 1021.2
20260509053229 55 329 0.0 0.0 0.00 0.00 0.00 84 1021.3
20260509052726 55 329 0.0 0.0 0.00 0.00 0.00 85 1021.4
20260509052225 55 329 0.0 0.0 0.00 0.00 0.00 85 1021.3
20260509051724 55 329 0.0 0.0 0.00 0.00 0.00 86 1021.3
20260509051152 55 329 0.0 0.0 0.00 0.00 0.00 85 1021.2
20260509050638 56 329 0.0 0.0 0.00 0.00 0.00 81 1021.2
20260509050128 56 329 0.0 0.0 0.00 0.00 0.00 80 1021.2
20260509045604 56 329 0.0 0.0 0.00 0.00 0.00 81 1021.1
20260509045535 57 329 0.0 0.0 0.00 0.00 0.00 81 1021.0
20260509044811 57 329 0.0 0.0 0.00 0.00 0.00 81 1021.0
20260509044045 57 329 0.0 0.0 0.00 0.00 0.00 81 1021.0
20260509043523 57 329 0.0 1.0 0.00 0.00 0.00 80 1020.9
20260509043021 58 329 0.0 1.0 0.00 0.00 0.00 78 1021.0
20260509042520 58 329 0.0 1.0 0.00 0.00 0.00 77 1021.0
20260509042018 58 329 0.0 0.0 0.00 0.00 0.00 76 1020.9
20260509041510 59 329 0.0 1.0 0.00 0.00 0.00 75 1020.8
20260509041004 59 329 0.0 1.0 0.00 0.00 0.00 74 1020.7
20260509040719 60 329 1.0 2.0 0.00 0.00 0.00 73 1020.7
20260509040001 60 329 1.0 2.0 0.00 0.00 0.00 72 1020.6
20260509035500 60 329 1.0 3.0 0.00 0.00 0.00 71 1020.7
20260509034955 61 329 2.0 4.0 0.00 0.00 0.00 69 1020.6
20260509034456 61 331 2.0 4.0 0.00 0.00 0.00 69 1020.5
20260509033955 61 314 2.0 4.0 0.00 0.00 0.00 69 1020.4
20260509033458 62 341 2.0 4.0 0.00 0.00 0.00 67 1020.4
20260509033216 62 358 2.0 6.0 0.00 0.00 0.00 67 1020.2
20260509032453 63 349 2.0 6.0 0.00 0.00 0.00 66 1020.2
20260509031952 63 4 2.0 6.0 0.00 0.00 0.00 65 1020.1
20260509031707 63 346 3.0 6.0 0.00 0.00 0.00 65 1020.1
20260509031203 64 346 3.0 6.0 0.00 0.00 0.00 65 1020.1
20260509030706 64 358 3.0 6.0 0.00 0.00 0.00 65 1020.0
20260509025940 64 6 3.0 6.0 0.00 0.00 0.00 64 1020.0
20260509025702 64 348 3.0 6.0 0.00 0.00 0.00 64 1020.1
20260509024928 65 28 3.0 6.0 0.00 0.00 0.00 64 1020.0
20260509024423 65 43 3.0 6.0 0.00 0.00 0.00 63 1020.1
20260509023919 65 357 3.0 9.0 0.00 0.00 0.00 62 1020.1
20260509023420 65 32 4.0 9.0 0.00 0.00 0.00 62 1020.0
20260509022920 66 13 4.0 10.0 0.00 0.00 0.00 62 1020.0
20260509022421 66 18 4.0 10.0 0.00 0.00 0.00 62 1020.0
20260509021918 66 40 5.0 9.0 0.00 0.00 0.00 61 1020.0
20260509021414 67 17 5.0 10.0 0.00 0.00 0.00 60 1020.0
20260509020904 67 331 6.0 10.0 0.00 0.00 0.00 60 1019.9
20260509020406 67 27 5.0 10.0 0.00 0.00 0.00 59 1020.0
20260509020125 67 16 4.0 9.0 0.00 0.00 0.00 59 1019.9
20260509015406 67 58 4.0 9.0 0.00 0.00 0.00 58 1019.9
20260509014904 67 352 5.0 9.0 0.00 0.00 0.00 58 1019.9
20260509014403 67 42 6.0 10.0 0.00 0.00 0.00 58 1019.9
20260509014125 68 11 6.0 10.0 0.00 0.00 0.00 58 1019.9
20260509013401 68 0 5.0 11.0 0.00 0.00 0.00 56 1019.9
20260509013124 68 10 5.0 11.0 0.00 0.00 0.00 57 1019.9
20260509012358 68 44 5.0 10.0 0.00 0.00 0.00 57 1019.9
20260509011859 69 19 5.0 10.0 0.00 0.00 0.00 57 1020.0
20260509011357 69 58 6.0 11.0 0.00 0.00 0.00 56 1020.0
20260509010856 69 28 6.0 11.0 0.00 0.00 0.00 55 1020.0
20260509010357 69 30 6.0 12.0 0.00 0.00 0.00 55 1020.0
20260509005856 69 5 6.0 12.0 0.00 0.00 0.00 54 1020.2
20260509005354 69 29 5.0 9.0 0.00 0.00 0.00 55 1020.2
20260509004852 69 15 5.0 12.0 0.00 0.00 0.00 57 1020.1
20260509004352 69 17 6.0 12.0 0.00 0.00 0.00 55 1020.3
20260509003851 69 29 7.0 13.0 0.00 0.00 0.00 56 1020.3
20260509003350 70 27 6.0 13.0 0.00 0.00 0.00 54 1020.2
20260509002850 71 13 6.0 10.0 0.00 0.00 0.00 54 1020.2
20260509002349 71 0 6.0 10.0 0.00 0.00 0.00 53 1020.3
20260509001849 71 352 6.0 11.0 0.00 0.00 0.00 53 1020.2
20260509001348 71 25 6.0 11.0 0.00 0.00 0.00 51 1020.2
20260509000846 71 351 6.0 11.0 0.00 0.00 0.00 52 1020.2
20260509000344 71 352 6.0 11.0 0.00 0.00 0.00 52 1020.2
20260508235840 71 17 5.0 14.0 0.00 0.00 0.00 51 1020.1
20260508235341 71 316 5.0 14.0 0.00 0.00 0.00 50 1020.2
20260508235108 71 352 5.0 10.0 0.00 0.00 0.00 53 1020.1
20260508234557 71 19 6.0 10.0 0.00 0.00 0.00 51 1020.2
20260508234059 71 353 6.0 9.0 0.00 0.00 0.00 52 1020.3
20260508233337 72 39 6.0 9.0 0.00 0.00 0.00 50 1020.3
20260508232836 71 322 5.0 12.0 0.00 0.00 0.00 50 1020.3
20260508232334 71 346 5.0 12.0 0.00 0.00 0.00 53 1020.3
20260508232052 71 339 5.0 11.0 0.00 0.00 0.00 52 1020.3
20260508231332 71 343 5.0 11.0 0.00 0.00 0.00 50 1020.3
20260508230831 72 337 5.0 10.0 0.00 0.00 0.00 52 1020.5
20260508230328 73 13 3.0 9.0 0.00 0.00 0.00 49 1020.4
20260508225828 73 323 4.0 10.0 0.00 0.00 0.00 50 1020.3
20260508225324 73 15 5.0 10.0 0.00 0.00 0.00 49 1020.4
20260508225044 72 342 4.0 9.0 0.00 0.00 0.00 52 1020.4
20260508224319 72 347 3.0 9.0 0.00 0.00 0.00 48 1020.5
20260508223817 71 33 2.0 8.0 0.00 0.00 0.00 55 1020.5
20260508223316 70 294 3.0 8.0 0.00 0.00 0.00 52 1020.5
20260508223300 71 246 4.0 8.0 0.00 0.00 0.00 50 1020.6
20260508222314 71 289 3.0 9.0 0.00 0.00 0.00 51 1020.5
20260508221812 71 292 4.0 10.0 0.00 0.00 0.00 49 1020.6
20260508221312 71 334 4.0 10.0 0.00 0.00 0.00 50 1020.7
20260508220813 70 36 4.0 9.0 0.00 0.00 0.00 52 1020.8
20260508220311 70 285 3.0 9.0 0.00 0.00 0.00 53 1020.8
20260508215812 70 318 3.0 8.0 0.00 0.00 0.00 53 1020.9
20260508215309 70 238 3.0 8.0 0.00 0.00 0.00 52 1021.0
20260508214806 69 316 3.0 7.0 0.00 0.00 0.00 53 1021.1
20260508214307 70 290 4.0 9.0 0.00 0.00 0.00 54 1021.1
20260508213807 71 354 4.0 9.0 0.00 0.00 0.00 52 1021.0
20260508213306 70 282 3.0 7.0 0.00 0.00 0.00 52 1021.2
20260508212806 69 302 3.0 8.0 0.00 0.00 0.00 55 1021.2
20260508212306 69 344 4.0 9.0 0.00 0.00 0.00 54 1021.3
20260508211804 69 308 4.0 10.0 0.00 0.00 0.00 52 1021.4
20260508211304 69 291 4.0 10.0 0.00 0.00 0.00 56 1021.3
20260508210802 69 325 4.0 8.0 0.00 0.00 0.00 53 1021.4
20260508210301 68 234 4.0 8.0 0.00 0.00 0.00 51 1021.4
20260508205801 68 294 3.0 8.0 0.00 0.00 0.00 54 1021.3
20260508205306 67 332 3.0 6.0 0.00 0.00 0.00 60 1021.3
20260508204801 67 0 3.0 6.0 0.00 0.00 0.00 52 1021.4
20260508204301 68 300 4.0 9.0 0.00 0.00 0.00 52 1021.4
20260508203801 68 231 4.0 9.0 0.00 0.00 0.00 61 1021.4
20260508203301 67 275 5.0 10.0 0.00 0.00 0.00 54 1021.6
20260508202757 67 275 5.0 11.0 0.00 0.00 0.00 57 1021.5
20260508202256 67 293 5.0 11.0 0.00 0.00 0.00 57 1021.4
20260508201755 65 242 4.0 11.0 0.00 0.00 0.00 57 1021.5
20260508201254 66 44 3.0 11.0 0.00 0.00 0.00 59 1021.6
20260508201019 65 275 4.0 8.0 0.00 0.00 0.00 61 1021.6
20260508200253 65 2 4.0 10.0 0.00 0.00 0.00 58 1021.7
20260508195754 65 200 4.0 10.0 0.00 0.00 0.00 61 1021.8
20260508195258 65 54 4.0 9.0 0.00 0.00 0.00 64 1021.8
20260508194751 65 296 3.0 8.0 0.00 0.00 0.00 61 1021.7
20260508194510 64 279 3.0 6.0 0.00 0.00 0.00 60 1021.7
20260508193749 64 10 3.0 8.0 0.00 0.00 0.00 62 1021.8
20260508193247 65 275 4.0 8.0 0.00 0.00 0.00 58 1021.8
20260508192748 65 339 4.0 9.0 0.00 0.00 0.00 61 1022.0
20260508192248 65 231 4.0 9.0 0.00 0.00 0.00 65 1021.7
20260508191747 63 39 4.0 10.0 0.00 0.00 0.00 60 1021.9
20260508191245 63 241 4.0 11.0 0.00 0.00 0.00 59 1021.9
20260508190749 63 17 3.0 11.0 0.00 0.00 0.00 63 1021.9
20260508190244 63 319 4.0 8.0 0.00 0.00 0.00 60 1021.9
20260508185743 64 356 5.0 9.0 0.00 0.00 0.00 59 1021.9
20260508185244 62 260 4.0 9.0 0.00 0.00 0.00 60 1021.8
20260508184744 61 265 4.0 11.0 0.00 0.00 0.00 60 1021.7
20260508184242 62 239 5.0 11.0 0.00 0.00 0.00 62 1021.8
20260508183731 61 235 4.0 11.0 0.00 0.00 0.00 63 1021.8
20260508183229 60 280 3.0 8.0 0.00 0.00 0.00 61 1021.9
20260508182727 62 275 4.0 10.0 0.00 0.00 0.00 66 1021.9
20260508182226 61 254 4.0 10.0 0.00 0.00 0.00 62 1022.0
20260508181718 60 279 5.0 11.0 0.00 0.00 0.00 65 1022.0
20260508181218 60 292 6.0 11.0 0.00 0.00 0.00 61 1022.1
20260508180717 60 295 5.0 12.0 0.00 0.00 0.00 68 1022.0
20260508180218 62 295 4.0 12.0 0.00 0.00 0.00 61 1022.1
20260508175717 60 259 4.0 10.0 0.00 0.00 0.00 68 1022.0
20260508175436 58 333 5.0 10.0 0.00 0.00 0.00 66 1022.0
20260508174715 58 270 5.0 11.0 0.00 0.00 0.00 67 1022.0
20260508174218 58 319 5.0 11.0 0.00 0.00 0.00 69 1022.0
20260508173931 57 292 5.0 11.0 0.00 0.00 0.00 69 1021.9
20260508173213 57 283 4.0 11.0 0.00 0.00 0.00 68 1021.9
20260508172711 58 254 4.0 8.0 0.00 0.00 0.00 71 1021.8
20260508172211 55 132 5.0 9.0 0.00 0.00 0.00 71 1021.8
20260508171712 55 255 6.0 11.0 0.00 0.00 0.00 68 1021.8
20260508171212 56 243 4.0 11.0 0.00 0.00 0.00 68 1021.8
20260508170711 56 233 3.0 10.0 0.00 0.00 0.00 70 1021.6
20260508170212 56 203 3.0 10.0 0.00 0.00 0.00 72 1021.6
20260508165712 55 265 3.0 6.0 0.00 0.00 0.00 75 1021.6
20260508165437 53 238 3.0 10.0 0.00 0.00 0.00 74 1021.6
20260508164710 53 164 4.0 10.0 0.00 0.00 0.00 74 1021.7
20260508164208 53 208 3.0 7.0 0.00 0.00 0.00 74 1021.6
20260508163710 53 181 4.0 7.0 0.00 0.00 0.00 75 1021.5
20260508163208 52 232 3.0 6.0 0.00 0.00 0.00 76 1021.5
20260508162935 52 229 3.0 6.0 0.00 0.00 0.00 77 1021.6
20260508162210 52 198 4.0 10.0 0.00 0.00 0.00 75 1021.3
20260508161703 53 171 4.0 10.0 0.00 0.00 0.00 75 1021.3
20260508161431 53 162 3.0 9.0 0.00 0.00 0.00 77 1021.3
20260508160704 53 204 3.0 6.0 0.00 0.00 0.00 75 1021.2
20260508160203 52 165 3.0 7.0 0.00 0.00 0.00 76 1021.3
20260508155927 52 163 4.0 7.0 0.00 0.00 0.00 76 1021.1
20260508155414 52 187 4.0 7.0 0.00 0.00 0.00 77 1021.3
20260508154701 52 175 4.0 8.0 0.00 0.00 0.00 75 1021.3
20260508154159 52 189 5.0 9.0 0.00 0.00 0.00 76 1021.4
20260508153650 52 235 5.0 9.0 0.00 0.00 0.00 76 1021.4
20260508153151 52 167 4.0 9.0 0.00 0.00 0.00 76 1021.0
20260508152649 51 136 4.0 8.0 0.00 0.00 0.00 75 1021.1
20260508152404 52 130 4.0 8.0 0.00 0.00 0.00 77 1021.2
20260508151645 51 104 4.0 8.0 0.00 0.00 0.00 76 1021.3
20260508151355 51 172 4.0 10.0 0.00 0.00 0.00 78 1021.4
20260508150621 51 160 4.0 10.0 0.00 0.00 0.00 76 1021.4
20260508150058 51 129 3.0 6.0 0.00 0.00 0.00 78 1021.4
20260508145550 51 166 4.0 6.0 0.00 0.00 0.00 78 1021.3
20260508145048 51 148 3.0 5.0 0.00 0.00 0.00 79 1021.2
20260508144550 51 131 3.0 6.0 0.00 0.00 0.00 80 1021.4
20260508144046 51 172 4.0 7.0 0.00 0.00 0.00 79 1021.4
20260508143544 51 147 3.0 7.0 0.00 0.00 0.00 80 1021.2
20260508143045 51 160 3.0 5.0 0.00 0.00 0.00 81 1021.4
20260508142544 51 156 3.0 6.0 0.00 0.00 0.00 80 1021.3
20260508142042 50 150 3.0 6.0 0.00 0.00 0.00 81 1021.3
20260508141538 50 171 3.0 7.0 0.00 0.00 0.00 81 1021.3
20260508141030 50 191 3.0 7.0 0.00 0.00 0.00 82 1021.3
20260508140753 50 182 3.0 4.0 0.00 0.00 0.00 83 1021.2
20260508140029 50 195 3.0 6.0 0.00 0.00 0.00 83 1021.1
20260508135529 50 196 3.0 7.0 0.00 0.00 0.00 84 1021.1
20260508135027 49 176 4.0 7.0 0.00 0.00 0.00 85 1021.3
20260508134524 49 185 4.0 7.0 0.00 0.00 0.00 84 1021.1
20260508134026 49 183 3.0 6.0 0.00 0.00 0.00 85 1021.0
20260508133516 49 196 4.0 7.0 0.00 0.00 0.00 85 1021.0
20260508133017 49 191 4.0 7.0 0.00 0.00 0.00 85 1020.8
20260508132513 49 197 4.0 7.0 0.00 0.00 0.00 85 1020.9
20260508132008 48 205 4.0 7.0 0.00 0.00 0.00 85 1020.7
20260508131501 48 148 3.0 7.0 0.00 0.00 0.00 86 1020.9
20260508131000 48 211 3.0 7.0 0.00 0.00 0.00 86 1020.8
20260508130500 48 191 3.0 7.0 0.00 0.00 0.00 86 1020.8
20260508125958 48 202 3.0 7.0 0.00 0.00 0.00 87 1020.7
20260508125453 47 189 3.0 6.0 0.00 0.00 0.00 87 1020.6
20260508124951 47 179 3.0 6.0 0.00 0.00 0.00 87 1020.6
20260508124453 47 202 3.0 8.0 0.00 0.00 0.00 87 1020.5
20260508124220 47 179 3.0 8.0 0.00 0.00 0.00 88 1020.4
20260508123451 46 210 4.0 8.0 0.00 0.00 0.00 88 1020.3
20260508122950 46 153 4.0 8.0 0.00 0.00 0.00 88 1020.3
20260508122451 46 189 3.0 7.0 0.00 0.00 0.00 89 1020.1
20260508121947 46 158 3.0 7.0 0.00 0.00 0.00 89 1020.1
20260508121448 46 197 3.0 6.0 0.00 0.00 0.00 89 1020.1
20260508120948 46 144 3.0 6.0 0.00 0.00 0.00 88 1020.1
20260508120446 46 169 3.0 6.0 0.00 0.00 0.00 89 1020.0
20260508115945 46 204 3.0 7.0 0.00 0.00 0.00 89 1019.9
20260508115444 46 169 3.0 7.0 0.00 0.00 0.00 90 1020.1
20260508114945 46 137 3.0 7.0 0.00 0.00 0.00 91 1020.0
20260508114442 46 177 3.0 7.0 0.00 0.00 0.00 91 1020.0
20260508113940 47 179 4.0 8.0 0.00 0.00 0.00 92 1019.9
20260508113441 47 181 4.0 8.0 0.00 0.00 0.00 91 1019.9
20260508113205 46 177 4.0 8.0 0.00 0.00 0.00 90 1019.9
20260508112442 47 187 4.0 9.0 0.00 0.00 0.00 88 1019.9
20260508111941 47 176 4.0 9.0 0.00 0.00 0.00 87 1019.9
20260508111438 46 195 4.0 9.0 0.00 0.00 0.00 88 1019.8
20260508111205 46 202 4.0 7.0 0.00 0.00 0.00 88 1019.7
20260508110438 46 175 4.0 7.0 0.00 0.00 0.00 88 1019.6
20260508105937 46 210 4.0 8.0 0.00 0.00 0.00 88 1019.4
20260508105436 46 219 4.0 8.0 0.00 0.00 0.00 87 1019.3